Voltar ao catálogo

STARLINK-37549

AtivoComunicaçõesSSO
NORAD 69351·PAYLOAD·🇺🇸 United States

Lançado Jun 3, 2026 de Vandenberg Space Force Base

Loading…

Próximas Passagens (próximas 24 horas)

TLE

AtualizadoSource: CelesTrak SupGP

Época: Sep 14, 2026, 21:14 UTC

1 69351C 26122Y   26257.88520833  .00024155  00000+0  75051-3 0  2570
2 69351  97.2823 286.6477 0001425  92.3722 242.7430 15.33397804    10

Acompanhe STARLINK-37549 em tempo real com AllMySat

Download on the App Store